FW3814 Weather Reports


time (UTC)temp
F
wind
direction
speed
knots
gust
knots
rain 1hr
in
rain 24hr
in
rain mn
in
humidity
%
barometer
mb
20260503192503 64 209 0.9 1.7 0.00 0.00 0.00 44 1015.7
20260503192024 64 211 1.7 3.5 0.00 0.00 0.00 44 1015.3
20260503191503 64 212 1.7 3.5 0.00 0.00 0.00 44 1015.6
20260503191003 64 205 2.6 3.5 0.00 0.00 0.00 44 1015.6
20260503190524 64 203 2.6 3.5 0.00 0.00 0.00 44 1015.6
20260503190003 64 213 2.6 3.5 0.00 0.00 0.00 44 1015.5
20260503185503 65 221 2.6 5.2 0.00 0.00 0.00 44 1015.2
20260503185003 65 221 0.9 5.2 0.00 0.00 0.00 42 1015.1
20260503184503 66 0 0.0 0.0 0.00 0.00 0.00 41 1015.2
20260503184003 66 0 0.0 0.0 0.00 0.00 0.00 41 1015.2
20260503183503 66 0 0.0 0.0 0.00 0.00 0.00 41 1015.2
20260503183003 66 0 0.0 0.0 0.00 0.00 0.00 41 1015.1
20260503182503 66 0 0.0 0.0 0.00 0.00 0.00 41 1015.1
20260503182004 66 0 0.0 0.0 0.00 0.00 0.00 41 1015.2
20260503181524 67 0 0.0 0.0 0.00 0.00 0.00 40 1015.1
20260503181003 67 0 0.0 0.0 0.00 0.00 0.00 40 1015.0
20260503180503 67 0 0.0 0.0 0.00 0.00 0.00 40 1015.2
20260503180003 67 0 0.0 0.0 0.00 0.00 0.00 40 1015.1
20260503175503 68 0 0.0 0.0 0.00 0.00 0.00 40 1015.1
20260503175003 68 0 0.0 0.0 0.00 0.00 0.00 40 1015.2
20260503174539 68 0 0.0 0.0 0.00 0.00 0.00 40 1015.2
20260503174003 68 0 0.0 0.0 0.00 0.00 0.00 40 1015.0
20260503173504 68 0 0.0 0.0 0.00 0.00 0.00 40 1015.1
20260503173003 68 0 0.0 0.0 0.00 0.00 0.00 39 1015.1
20260503172503 69 0 0.0 0.0 0.00 0.00 0.00 38 1015.2
20260503172024 69 0 0.0 0.0 0.00 0.00 0.00 37 1015.3
20260503171503 69 270 0.0 0.9 0.00 0.00 0.00 37 1015.2
20260503171003 69 270 0.0 0.9 0.00 0.00 0.00 36 1015.2
20260503170503 69 0 0.0 0.0 0.00 0.00 0.00 35 1015.0
20260503151003 71 270 3.5 4.3 0.00 0.00 0.00 34 1015.9
20260503150503 71 259 3.5 4.3 0.00 0.00 0.00 35 1015.9
20260503131003 72 247 3.5 6.1 0.00 0.00 0.00 36 1017.0
20260503130503 72 243 3.5 6.1 0.00 0.00 0.00 36 1017.0
20260503110504 70 246 4.3 7.0 0.00 0.00 0.00 36 1017.3
20260503081504 67 151 2.6 5.2 0.00 0.00 0.00 49 1017.7
20260503081005 67 141 5.2 5.2 0.00 0.00 0.00 48 1017.7
20260503080504 67 127 4.3 5.2 0.00 0.00 0.00 48 1017.7
20260503072504 65 39 0.0 3.5 0.00 0.00 0.00 52 1017.7
20260503072004 65 67 0.0 0.9 0.00 0.00 0.00 53 1017.7
20260503071505 64 67 0.0 0.9 0.00 0.00 0.00 54 1017.6
20260503071004 64 0 0.0 0.0 0.00 0.00 0.00 56 1017.8
20260503070504 62 360 0.0 0.9 0.00 0.00 0.00 60 1017.6
20260503055004 57 21 0.9 4.3 0.00 0.00 0.00 61 1017.7
20260503054504 57 22 0.0 0.9 0.00 0.00 0.00 61 1017.7
20260503054004 56 0 0.0 0.0 0.00 0.00 0.00 61 1017.6
20260503053504 56 0 0.0 0.0 0.00 0.00 0.00 61 1017.6
20260503053025 56 13 0.0 0.9 0.00 0.00 0.00 61 1017.6
20260503052504 56 13 0.0 0.9 0.00 0.00 0.00 61 1017.6
20260503052004 56 0 0.0 0.0 0.00 0.00 0.00 60 1017.5
20260503051504 56 0 0.0 0.0 0.00 0.00 0.00 60 1017.6
20260503051005 56 0 0.0 0.0 0.00 0.00 0.00 61 1017.7
20260503050504 56 360 0.0 2.6 0.00 0.00 0.00 61 1017.6
20260503050005 56 5 0.9 2.6 0.00 0.00 0.00 61 1017.5
20260503045504 55 7 0.9 2.6 0.00 0.00 0.00 61 1017.5
20260503045004 55 16 0.9 2.6 0.00 0.00 0.00 61 1017.4
20260503044504 55 19 0.9 2.6 0.00 0.00 0.00 61 1017.3
20260503044004 55 4 0.0 1.7 0.00 0.00 0.00 61 1017.5
20260503043504 55 2 0.9 1.7 0.00 0.00 0.00 60 1017.6
20260503043025 55 7 0.9 1.7 0.00 0.00 0.00 60 1017.6
20260503042525 55 11 0.9 1.7 0.00 0.00 0.00 60 1017.5
20260503042004 55 16 0.9 1.7 0.00 0.00 0.00 60 1017.4
20260503041504 55 19 0.9 1.7 0.00 0.00 0.00 60 1017.5
20260503041004 56 20 1.7 1.7 0.00 0.00 0.00 60 1017.5
20260503040504 56 23 1.7 1.7 0.00 0.00 0.00 59 1017.7
20260503040025 56 23 0.9 1.7 0.00 0.00 0.00 59 1017.6
20260503035504 56 21 0.9 2.6 0.00 0.00 0.00 60 1017.5
20260503035004 56 31 1.7 3.5 0.00 0.00 0.00 60 1017.5
20260503034504 56 29 1.7 3.5 0.00 0.00 0.00 60 1017.4
20260503034004 56 21 2.6 5.2 0.00 0.00 0.00 60 1017.4
20260503033525 56 18 2.6 5.2 0.00 0.00 0.00 60 1017.4
20260503033004 56 19 2.6 6.1 0.00 0.00 0.00 60 1017.8
20260503032504 56 19 2.6 6.1 0.00 0.00 0.00 60 1017.5
20260503032004 55 11 2.6 6.1 0.00 0.00 0.00 60 1017.6
20260503031504 55 12 3.5 6.1 0.00 0.00 0.00 60 1017.6
20260503031004 55 12 1.7 3.5 0.00 0.00 0.00 60 1017.6
20260503030504 55 15 0.9 1.7 0.00 0.00 0.00 59 1017.7
20260503030004 55 43 0.9 1.7 0.00 0.00 0.00 58 1017.7
20260503025504 55 101 0.0 0.9 0.00 0.00 0.00 58 1017.7
20260503025004 56 13 0.9 3.5 0.00 0.00 0.00 58 1017.8
20260503024504 56 14 1.7 3.5 0.00 0.00 0.00 58 1017.9
20260503024004 56 18 1.7 3.5 0.00 0.00 0.00 58 1017.9
20260503023504 56 18 0.9 3.5 0.00 0.00 0.00 58 1017.9
20260503023004 56 12 1.7 2.6 0.00 0.00 0.00 57 1017.9
20260503022504 56 13 1.7 2.6 0.00 0.00 0.00 58 1017.7
20260503022004 56 18 1.7 3.5 0.00 0.00 0.00 58 1017.9
20260503021525 56 21 2.6 5.2 0.00 0.00 0.00 58 1017.8
20260503021004 56 22 3.5 5.2 0.00 0.00 0.00 58 1017.9
20260503020504 56 21 2.6 2.6 0.00 0.00 0.00 58 1018.0
20260503020004 56 19 2.6 3.5 0.00 0.00 0.00 58 1018.1
20260503015504 56 17 3.5 4.3 0.00 0.00 0.00 58 1018.1
20260503015025 56 14 3.5 4.3 0.00 0.00 0.00 58 1018.0
20260503014504 56 14 2.6 4.3 0.00 0.00 0.00 57 1018.1
20260503014040 56 18 2.6 3.5 0.00 0.00 0.00 57 1018.1
20260503013525 57 15 3.5 3.5 0.00 0.00 0.00 57 1017.9
20260503013004 57 14 3.5 6.1 0.00 0.00 0.00 57 1018.0
20260503012504 57 20 4.3 6.1 0.00 0.00 0.00 57 1018.1
20260503012025 57 20 3.5 6.1 0.00 0.00 0.00 57 1018.3
20260503011504 57 21 2.6 3.5 0.00 0.00 0.00 57 1017.9
20260503011004 57 22 1.7 3.5 0.00 0.00 0.00 57 1018.1
20260503010504 57 19 1.7 3.5 0.00 0.00 0.00 57 1018.4
20260503010004 57 14 1.7 3.5 0.00 0.00 0.00 57 1018.4
20260503005504 57 18 2.6 3.5 0.00 0.00 0.00 57 1018.4
20260503005004 57 19 2.6 3.5 0.00 0.00 0.00 57 1018.5
20260503004504 57 22 2.6 3.5 0.00 0.00 0.00 57 1018.5
20260503004004 57 24 2.6 3.5 0.00 0.00 0.00 57 1018.6
20260503003516 57 19 1.7 2.6 0.00 0.00 0.00 58 1018.7
20260503003025 57 16 2.6 3.5 0.00 0.00 0.00 58 1018.7
20260503002525 57 12 2.6 3.5 0.00 0.00 0.00 58 1018.8
20260503002004 57 16 2.6 4.3 0.00 0.00 0.00 57 1018.8
20260503001504 57 17 2.6 4.3 0.00 0.00 0.00 57 1018.7
20260503001004 56 14 0.9 3.5 0.00 0.00 0.00 57 1018.9
20260503000504 56 0 0.0 0.0 0.00 0.00 0.00 56 1019.0
20260503000004 56 0 0.0 0.0 0.00 0.00 0.00 56 1018.9
20260502235504 56 0 0.0 0.0 0.00 0.00 0.00 55 1018.9
20260502235004 57 0 0.0 0.0 0.00 0.00 0.00 54 1019.0
20260502234504 57 0 0.0 0.0 0.00 0.00 0.00 54 1019.0
20260502234004 57 0 0.0 0.0 0.00 0.00 0.00 54 1019.1
20260502233504 57 0 0.0 0.0 0.00 0.00 0.00 53 1019.1
20260502233004 57 0 0.0 0.0 0.00 0.00 0.00 53 1019.1
20260502232504 58 360 0.0 1.7 0.00 0.00 0.00 53 1019.2
20260502232005 58 3 0.9 1.7 0.00 0.00 0.00 53 1019.2
20260502231505 58 5 0.9 1.7 0.00 0.00 0.00 53 1019.2
20260502231003 58 6 0.9 1.7 0.00 0.00 0.00 53 1019.2
20260502230503 58 8 0.9 1.7 0.00 0.00 0.00 53 1019.3
20260502230003 58 22 0.0 1.7 0.00 0.00 0.00 52 1019.2
20260502225503 58 0 0.0 0.0 0.00 0.00 0.00 51 1019.3
20260502225003 58 0 0.0 0.0 0.00 0.00 0.00 51 1019.4
20260502224503 58 0 0.0 0.0 0.00 0.00 0.00 51 1019.1
20260502224003 58 0 0.0 0.0 0.00 0.00 0.00 51 1019.2
20260502223524 58 0 0.0 0.0 0.00 0.00 0.00 51 1019.3
20260502223024 58 0 0.0 0.0 0.00 0.00 0.00 50 1019.3
20260502222524 59 0 0.0 0.0 0.00 0.00 0.00 50 1019.2
20260502222003 59 0 0.0 0.0 0.00 0.00 0.00 50 1019.3
20260502221524 59 0 0.0 0.0 0.00 0.00 0.00 50 1019.3
20260502221024 59 0 0.0 0.0 0.00 0.00 0.00 49 1019.5
20260502220524 60 0 0.0 0.0 0.00 0.00 0.00 48 1019.4
20260502220003 60 20 0.0 1.7 0.00 0.00 0.00 48 1019.3
20260502215503 60 24 0.9 1.7 0.00 0.00 0.00 47 1019.3
20260502215003 60 32 0.9 2.6 0.00 0.00 0.00 46 1019.2
20260502214503 60 35 0.9 2.6 0.00 0.00 0.00 46 1019.4
20260502214003 60 0 0.0 0.0 0.00 0.00 0.00 45 1019.3
20260502213503 60 22 0.0 0.9 0.00 0.00 0.00 45 1019.4
20260502213024 60 22 0.0 0.9 0.00 0.00 0.00 44 1019.4
20260502212503 60 0 0.0 0.0 0.00 0.00 0.00 44 1019.3
20260502212004 60 0 0.0 0.0 0.00 0.00 0.00 43 1019.5
20260502211524 61 0 0.0 0.0 0.00 0.00 0.00 43 1019.4
20260502211024 61 22 0.0 0.9 0.00 0.00 0.00 43 1019.4
20260502210503 61 22 0.0 0.9 0.00 0.00 0.00 42 1019.5
20260502210003 62 22 0.0 0.9 0.00 0.00 0.00 41 1019.5
20260502205503 62 0 0.0 0.0 0.00 0.00 0.00 41 1019.7
20260502205003 62 0 0.0 0.0 0.00 0.00 0.00 42 1019.4
20260502204503 62 0 0.0 0.0 0.00 0.00 0.00 41 1019.4
20260502204003 62 0 0.0 0.0 0.00 0.00 0.00 41 1019.4
20260502203503 62 0 0.0 0.0 0.00 0.00 0.00 41 1019.7
20260502203003 62 0 0.0 0.0 0.00 0.00 0.00 41 1019.6
20260502202503 62 0 0.0 0.0 0.00 0.00 0.00 41 1019.7
20260502202003 62 0 0.0 0.0 0.00 0.00 0.00 41 1019.6
20260502201503 62 0 0.0 0.0 0.00 0.00 0.00 41 1019.5
20260502201003 62 0 0.0 0.0 0.00 0.00 0.00 41 1019.5
20260502200503 63 0 0.0 0.0 0.00 0.00 0.00 41 1019.5
20260502200003 63 0 0.0 0.0 0.00 0.00 0.00 41 1019.6
20260502195524 63 0 0.0 0.0 0.00 0.00 0.00 41 1019.7
20260502195003 64 0 0.0 0.0 0.00 0.00 0.00 37 1019.4
20260502194503 64 0 0.0 0.0 0.00 0.00 0.00 37 1019.4
20260502194024 64 0 0.0 0.0 0.00 0.00 0.00 37 1019.4
20260502193503 65 0 0.0 0.0 0.00 0.00 0.00 37 1019.4
20260502193003 65 0 0.0 0.0 0.00 0.00 0.00 37 1019.3